TimePST,TemperatureF,Dew PointF,Humidity,Sea Level PressureIn,VisibilityMPH,Wind Direction,Wind SpeedMPH,Gust SpeedMPH,PrecipitationIn,Events,Conditions,WindDirDegrees,DateUTC
12:37 AM,26.6,24.8,93,30.17,2.0,Calm,Calm,-,N/A,,Overcast,0,2013-01-06 08:37:00
12:48 AM,26.6,24.8,93,30.17,1.2,Calm,Calm,-,N/A,,Overcast,0,2013-01-06 08:48:00
12:55 AM,27.0,25.0,92,30.22,1.2,Calm,Calm,-,N/A,,Overcast,0,2013-01-06 08:55:00
1:07 AM,26.6,26.6,100,30.16,0.8,Calm,Calm,-,N/A,,Mist,0,2013-01-06 09:07:00
1:39 AM,26.6,24.8,93,30.17,1.0,West,3.5,-,N/A,,Mist,260,2013-01-06 09:39:00
1:55 AM,27.0,25.0,92,30.22,1.5,Calm,Calm,-,N/A,,Overcast,0,2013-01-06 09:55:00
2:18 AM,26.6,26.6,100,30.17,0.8,Calm,Calm,-,N/A,,Overcast,0,2013-01-06 10:18:00
2:55 AM,27.0,25.0,92,30.22,0.5,Calm,Calm,-,N/A,Fog,Light Freezing Fog,0,2013-01-06 10:55:00
3:17 AM,26.6,24.8,93,30.17,1.5,Calm,Calm,-,N/A,,Overcast,0,2013-01-06 11:17:00
3:31 AM,26.6,24.8,93,30.17,0.8,Calm,Calm,-,N/A,,Overcast,0,2013-01-06 11:31:00
3:41 AM,26.6,24.8,93,30.17,1.0,Calm,Calm,-,N/A,,Overcast,0,2013-01-06 11:41:00
3:55 AM,27.0,25.0,92,30.21,1.8,Calm,Calm,-,N/A,,Overcast,0,2013-01-06 11:55:00
4:05 AM,26.6,24.8,93,30.16,0.5,Calm,Calm,-,N/A,Fog,Light Freezing Fog,0,2013-01-06 12:05:00
4:15 AM,26.6,24.8,93,30.16,0.8,Calm,Calm,-,N/A,,Overcast,0,2013-01-06 12:15:00
4:34 AM,26.6,24.8,93,30.15,1.5,Calm,Calm,-,N/A,,Overcast,0,2013-01-06 12:34:00
4:42 AM,26.6,24.8,93,30.15,2.5,Calm,Calm,-,N/A,,Overcast,0,2013-01-06 12:42:00
4:52 AM,26.6,24.8,93,30.15,6.0,NE,4.6,-,N/A,,Overcast,50,2013-01-06 12:52:00
4:55 AM,27.0,24.1,89,30.20,8.0,NE,4.6,-,N/A,,Overcast,40,2013-01-06 12:55:00
5:55 AM,27.0,23.0,85,30.19,10.0,NNE,5.8,-,N/A,,Overcast,30,2013-01-06 13:55:00
6:55 AM,27.0,23.0,85,30.20,10.0,ENE,3.5,-,N/A,,Overcast,60,2013-01-06 14:55:00
7:55 AM,27.0,21.9,81,30.20,10.0,NE,5.8,-,N/A,,Overcast,40,2013-01-06 15:55:00
8:55 AM,27.0,23.0,85,30.23,10.0,Calm,Calm,-,N/A,,Overcast,0,2013-01-06 16:55:00
9:55 AM,27.0,24.1,89,30.25,5.0,WSW,3.5,-,N/A,,Overcast,250,2013-01-06 17:55:00
10:55 AM,27.0,24.1,89,30.25,8.0,Calm,Calm,-,N/A,,Overcast,0,2013-01-06 18:55:00
11:55 AM,28.0,23.0,81,30.20,10.0,Calm,Calm,-,N/A,,Overcast,0,2013-01-06 19:55:00
12:55 PM,28.0,24.1,85,30.17,10.0,Calm,Calm,-,N/A,,Overcast,0,2013-01-06 20:55:00
1:55 PM,28.0,24.1,85,30.16,10.0,Calm,Calm,-,N/A,,Overcast,0,2013-01-06 21:55:00
2:55 PM,28.0,23.0,81,30.16,8.0,East,3.5,-,N/A,,Overcast,80,2013-01-06 22:55:00
3:52 PM,28.4,24.8,86,30.10,6.0,SE,6.9,-,N/A,,Overcast,130,2013-01-06 23:52:00
3:55 PM,28.0,24.1,85,30.14,6.0,ESE,5.8,-,N/A,,Overcast,110,2013-01-06 23:55:00
4:55 PM,28.0,25.0,88,30.15,5.0,SE,6.9,-,N/A,,Overcast,130,2013-01-07 00:55:00
5:55 PM,28.0,25.0,88,30.14,7.0,SE,4.6,-,N/A,,Overcast,130,2013-01-07 01:55:00
6:55 PM,28.0,24.1,85,30.14,8.0,East,3.5,-,N/A,,Overcast,100,2013-01-07 02:55:00
7:55 PM,28.0,24.1,85,30.14,7.0,Calm,Calm,-,N/A,,Overcast,0,2013-01-07 03:55:00
8:55 PM,28.0,25.0,88,30.14,6.0,SE,3.5,-,N/A,,Overcast,140,2013-01-07 04:55:00
9:55 PM,28.0,25.0,88,30.13,6.0,ESE,3.5,-,N/A,,Overcast,110,2013-01-07 05:55:00
10:15 PM,28.4,24.8,86,30.08,6.0,ESE,3.5,-,N/A,,Overcast,110,2013-01-07 06:15:00
10:55 PM,28.0,25.0,88,30.12,3.0,Calm,Calm,-,N/A,,Overcast,0,2013-01-07 06:55:00
11:55 PM,28.0,25.0,88,30.10,4.0,Calm,Calm,-,N/A,,Overcast,0,2013-01-07 07:55:00